Location: Parador Hotel
(28.2240°N, 16.6271°W)
Time: 06:36:45
(UTC+00:00)

Tiangong - Visible Passes

Search period start: 24 January 2022 00:00
Search period end: 03 February 2022 00:00
Orbit: 383 x 386 km, 41.5° (Epoch: 23 January)

Date Brightness Start Highest point End Pass type
(mag) Time Alt. Az. Time Alt. Az. Time Alt. Az.
24 Jan 1.6 19:38:18 10° SW 19:41:19 44° SE 19:42:31 28° E visible
25 Jan 2.3 20:15:28 10° W 20:18:12 36° NW 20:18:12 36° NW visible
26 Jan 1.1 19:15:31 10° WSW 19:18:39 77° NNW 19:21:33 12° NE visible
27 Jan 3.1 19:53:23 10° WNW 19:55:53 21° NNW 19:57:03 17° N visible
29 Jan 3.6 19:31:34 10° NW 19:33:18 14° NNW 19:35:03 10° NNE visible
